Location: College Park
(38.9810°N, 76.9370°W)
Time: 08:58:47
(UTC-04:00)

ELECTRON R/B - Visible Passes

Search period start: 21 May 2018 00:00
Search period end: 31 May 2018 00:00
Orbit: 285 x 480 km, 82.9° (Epoch: 20 May)

Date Brightness Start Highest point End Pass type
(mag) Time Alt. Az. Time Alt. Az. Time Alt. Az.
21 May 5.1 21:41:52 10° NNE 21:44:08 33° E 21:44:08 33° E visible
22 May 6.2 22:18:23 10° NNW 22:20:29 25° W 22:20:40 25° W visible
23 May 5.4 21:21:51 10° NNE 21:24:02 28° E 21:24:54 22° ESE visible
24 May 6.0 21:58:02 10° NNW 22:00:15 31° W 22:01:22 21° SW visible
25 May 5.7 21:01:33 10° NNE 21:03:38 23° E 21:05:30 11° SE visible
26 May 5.7 21:37:23 10° NNW 21:39:44 39° W 21:41:54 12° SSW visible
28 May 5.3 21:16:28 10° NNW 21:18:53 50° W 21:21:25 10° S visible
30 May 4.8 20:55:16 10° NNW 20:57:46 67° W 21:00:24 10° S visible
